Flag for USA

Past Weather in Santa Fe, New Mexico, USA — Yesterday and Last 2 Weeks

Now
53 °F

Overcast.


Feels Like: 48 °F
Forecast: 58 / 39 °F
Wind: 17 mph from South

Location: Santa Fe County Municipal Airport
Current Time: Sep 28, 2020 at 12:02:00 pm
Latest Report: Sep 28, 2020 at 10:53 am
Visibility: 10 mi
Pressure30.27 "Hg(23.44 "Hg at 2132m altitude)
Humidity: 35%
Dew Point: 26 °F
Location of Santa FeLocation

Past Weather in Santa Fe — Graph

°F

Santa Fe Temperature Yesterday

Maximum temperature yesterday: 87 °F (at 2:53 pm)
Minimum temperature yesterday: 45 °F (at 6:53 am)
Average temperature yesterday: 67 °F

High & Low Weather Summary for the Past Weeks

 TemperatureHumidityPressure
High88 °F (Sep 26, 3:53 pm)80% (Sep 15, 3:53 am)30.30 "Hg (Sep 15, 3:53 am)
Low42 °F (Sep 28, 5:53 am)6% (Sep 26, 4:53 pm)29.69 "Hg (Sep 27, 2:53 pm)
Average65 °F33%30.01 "Hg
* Reported Sep 13 10:53 am — Sep 28 10:53 am, Santa Fe. Weather by CustomWeather, © 2020

Note: Actual official high and low records may vary slightly from our data, if they occured in-between our weather recording intervals... More about our weather records

Santa Fe Weather History for the Previous 24 Hours

Scroll right to see more
 ConditionsComfort  
Time TempWeatherWind HumidityBarometerVisibility
10:53 am
Mon, Sep 28
53 °FOvercast.17 mph35%30.27 "Hg10 mi
9:53 am51 °FOvercast.16 mph38%30.25 "Hg10 mi
8:53 am48 °FPartly sunny.16 mph44%30.24 "Hg10 mi
7:53 am46 °FPartly sunny.13 mph51%30.22 "Hg10 mi
6:53 am42 °FClear.13 mph62%30.18 "Hg10 mi
5:53 am42 °FClear.14 mph65%30.13 "Hg10 mi
4:53 am43 °FClear.17 mph62%30.08 "Hg10 mi
3:53 am44 °FClear.15 mph60%30.05 "Hg10 mi
2:53 am45 °FClear.15 mph60%30.03 "Hg10 mi
1:53 am47 °FClear.18 mph56%30.00 "Hg10 mi
12:53 am50 °FClear.16 mph50%29.98 "Hg10 mi
11:53 pm
Sun, Sep 27
54 °FClear.29 mph47%29.93 "Hg10 mi
10:53 pm58 °FClear.20 mph41%29.90 "Hg10 mi
9:53 pm62 °FClear.15 mph34%29.89 "Hg10 mi
8:53 pm65 °FClear.14 mph31%29.88 "Hg10 mi
7:53 pm68 °FClear.3 mph19%29.85 "Hg10 mi
6:53 pm75 °FClear.9 mph15%29.82 "Hg10 mi
5:53 pm81 °FSunny.14 mph12%29.76 "Hg10 mi
4:53 pm84 °FSunny.17 mph11%29.72 "Hg10 mi
3:53 pm86 °FSunny.23 mph9%29.72 "Hg10 mi
2:53 pm87 °FSunny.17 mph10%29.69 "Hg10 mi
1:53 pm86 °FSunny.10 mph10%29.72 "Hg10 mi
12:53 pm82 °FSunny.N/A10%29.78 "Hg10 mi
Weather by CustomWeather, © 2020

See weather overview